DELTA 1 DEB, 13531

Orbit data source: Space-Track

DELTA 1 DEB, 13531 is space debris in SSO originally from a launch on Thu, 29 Jul 1976 UTC launched from the Air Force Western Test Range (AFWTR). Debris objects in space refer to the collection of defunct objects orbiting the Earth. Examples of debris include non-operational satellites, rocket bodies, and fragments generated from explosions, collisions, or faulty payload assembly.

Loading next visibility...
Identifier
13531, 1976-077ED
Orbit
SSO
Country
Flag of USUS
Related business
Manufacturer
Unknown
Mission
Spacecraft
Bus & Motor
Unknown
Mass
Unknown
Launch date (UTC)
1976-07-29 (49 years ago)
Launch vehicle
Unknown
Launch site
Air Force Western Test Range (AFWTR)
Object type
Payload
Rocket body
Debris
Shape & HBR
Unknown shape, 0.1 m
Radar Cross Section
Small (<0.1 m²)

Expand to show TLE details & history
Last TLE update: 23 hours ago

TLE from 23 hours ago
0 DELTA 1 DEB
1 13531U 76077ED  25348.88880125  .00000028  00000-0  70430-3 0  9999
2 13531 102.7300 321.8784 0140629 124.1855 295.0122 12.17142373933635
Epoch: 2025-12-14T21:19Z
TLE epoch observation values (Epoch: 2025-12-14T21:19:52.427Z)
Latitude
55.65496°
Longitude
-101.09377°
Altitude
1,567.843 km
Speed
7.11 km/s
True Right ascension
20h 10m 40s
True Declination
55° 30' 39"
Sunlit
Object was in daylight at epoch
Visualization orbit readout
Latitude
Unknown
Longitude
Unknown
Altitude
Unknown
Speed
Unknown
Apparent Right ascension
Unknown
Apparent Declination
Unknown
Sunlit
N/A
Visualization observer readout
Local Sidereal Time
19:12:04
Azimuth
Unknown
Elevation
Unknown
Doppler factor
Unknown
Orbital elements
Apogee altitude
1,714.894 km
Perigee altitude
1,490.427 km
Semi-major axis
7,980.797 km
Eccentricity
0.01406
Inclination
102.73°
RAAN
321.8784°
Arg. of periapsis
124.1855°
True anomaly
293.54107°
Mean anomaly
295.0122°
Eccentric anomaly
294.27771°
Mean motion
3.0442 °/min
Orbital period
118.26 mins
BSTAR
0.0007043
Loading maneuver chart data...
Computing Atmospheric mass density...
Loading historical data...
Loading historical data...
Loading historical data...
Loading historical data...
Loading historical data...
Loading historical data...
Loading historical data...

Documentation

Showing up to 5 results
|